Regional Weather Roundup
Issued by NWS

Home | Current Version | Previous Version | Text Only | Print | Product List | Glossary Off
Versions: 1 2 3 4 5 6 7 8 9 10 11 12 13 14 15 16 17 18 19 20 21 22 23 24 25 26 27 28 29 30 31 32 33 34 35 36 37 38 39 40 41 42 43 44 45 46 47 48 49 50

000
ASUS43 KOAX 222002
RWRNE

WEATHER ROUNDUP FOR NEBRASKA
NATIONAL WEATHER SERVICE OMAHA NE
200 PM CST THU FEB 22 2018

NOTES: SATELLITE DATA IS BEING USED TO AUGMENT CLOUD COVER ABOVE
       12000 FEET.
       "FAIR" INDICATES FEW OR NO CLOUDS BELOW 12,000 FEET WITH NO
       SIGNIFICANT WEATHER AND/OR OBSTRUCTIONS TO VISIBILITY.


NEZ001>004-019>022-054>056-222100-
NEBRASKA PANHANDLE

CITY           SKY/WX    TMP DP  RH WIND       PRES   REMARKS
SCOTTSBLUFF    LGT SNOW  23  19  85 E6        30.00F FOG     WCI  16
ALLIANCE       CLOUDY    21  16  81 S9        30.00F WCI  11
CHADRON        LGT SNOW  22  13  68 CALM      30.04F
GORDON         LGT SNOW  23  18  80 SW5       30.03F WCI  17
KIMBALL        MOSUNNY   21  14  74 CALM      29.95F
SIDNEY         MOSUNNY   21  15  78 S8        29.98F WCI  11
$$

NEZ057>060-069>072-079>082-222100-
SOUTHWEST NEBRASKA

CITY           SKY/WX    TMP DP  RH WIND       PRES   REMARKS
NORTH PLATTE   CLOUDY    23  17  78 SE6       30.12S WCI  16
IMPERIAL       CLOUDY    24  16  71 SE6       30.07F WCI  17
LEXINGTON      LGT SNOW  26  22  85 SE8       30.14F WCI  17
MCCOOK         LGT SNOW  23  22  96 SE9       30.13R FOG     WCI  13
OGALLALA       CLOUDY    24  16  71 SE5       30.07F WCI  18
$$

NEZ005>010-023>029-035>040-094-222100-
NORTH CENTRAL NEBRASKA

CITY           SKY/WX    TMP DP  RH WIND       PRES   REMARKS
VALENTINE      LGT SNOW  25  19  78 SE6       30.11F VSB 1   WCI  18
AINSWORTH      LGT SNOW  22  19  91 E3        30.12F VSB 3/4
BROKEN BOW     LGT SNOW  22  18  85 E7        30.12S VSB 1   WCI  13
O`NEILL        LGT SNOW  24  21  90 E7        30.17F WCI  15
ORD            LGT SNOW  22  19  89 E8        30.17F VSB 1   WCI  12
THEDFORD       CLOUDY    24  18  78 CALM      30.09F
$$

NEZ041-046>049-061>064-073>077-083>087-222100-
SOUTH CENTRAL NEBRASKA

CITY           SKY/WX    TMP DP  RH WIND       PRES   REMARKS
GRAND ISLAND   CLOUDY    25  20  81 SE10      30.22F WCI  15
AURORA         CLOUDY    25  22  89 SE10      30.22F WCI  15
HASTINGS       CLOUDY    25  20  81 SE10      30.20F WCI  15
HEBRON         CLOUDY    29  26  90 E6        30.23F WCI  23
HOLDREGE       CLOUDY    25  22  89 SE10      30.15F WCI  15
KEARNEY        FLURRIES  26  20  77 SE8       30.17F WCI  18
YORK           CLOUDY    27  27 100 SE12      30.24F WCI  16
$$

NEZ011>018-030>034-042>045-222100-
NORTHEAST NEBRASKA

CITY           SKY/WX    TMP DP  RH WIND       PRES   REMARKS
NORFOLK        CLOUDY    24  21  88 E9        30.21F WCI  14
ALBION         CLOUDY    25  20  83 SE7       30.21F WCI  17
BLAIR          MIX PCPN  28  26  92 SE9       30.28F WCI  19
COLUMBUS       CLOUDY    26  22  84 SE7       30.26F WCI  18
FREMONT        CLOUDY    27  24  90 E9        30.28F WCI  18
TEKAMAH        CLOUDY    26  25  96 SE10      30.31F FOG     WCI  16
WAYNE          CLOUDY    26  25  96 SE9       30.26F WCI  17
$$

NEZ050>053-065>068-078-088>093-222100-
SOUTHEAST NEBRASKA

CITY           SKY/WX    TMP DP  RH WIND       PRES   REMARKS
LINCOLN        CLOUDY    28  25  88 SE7       30.29F FOG     WCI  21
OMAHA EPPLEY   FRZ DRZL  29  26  89 SE10      30.32F WCI  20
BEATRICE       CLOUDY    31  28  92 E7        30.24F WCI  24
FALLS CITY     CLOUDY    30  28  92 E8        30.28F WCI  22
NEBRASKA CITY  CLOUDY    30  30 100 SE9       30.29F FOG     WCI  22
PLATTSMOUTH    CLOUDY    29  28  95 SE8       30.29F FOG     WCI  21
$$

NEZ044-045-051>053-067-222100-
OMAHA AREA

CITY           SKY/WX    TMP DP  RH WIND       PRES   REMARKS
OMAHA EPPLEY   FRZ DRZL  29  26  89 SE10      30.32F WCI  20
BLAIR          MIX PCPN  28  26  92 SE9       30.28F WCI  19
FREMONT        CLOUDY    27  24  90 E9        30.28F WCI  18
MILLARD        CLOUDY    30  27  89 SE10      30.30F FOG     WCI  21
OFFUTT AFB     FRZ DRZL  28  27  93 E12       30.29F FOG     WCI  18
PLATTSMOUTH    CLOUDY    29  28  95 SE8       30.29F FOG     WCI  21
WAHOO          CLOUDY    28  26  93 SE9       30.28F FOG     WCI  19
$$




USA.gov is the U.S. government's official web portal to all federal, state and local government web resources and services.